This is the latest recevied weather packets stored in our database for station/object IU1OPQ-3. If no packets are shown the sender has not sent any weather packets the latest 10 day(s).
| Time | Temp. | Humidity | Pressure | Rain* | Wind** | Luminosity | Snow |
|---|---|---|---|---|---|---|---|
| 1777784401 | 13.89° C | 61% | 1018.9 hPa | 0 mm | - | - | - |
| 1777783500 | 13.89° C | 63% | 1019 hPa | 0 mm | - | - | - |
| 1777782601 | 13.89° C | 62% | 1019.1 hPa | 0 mm | - | - | - |
| 1777781700 | 13.89° C | 62% | 1019 hPa | 0 mm | - | - | - |
| 1777780800 | 13.89° C | 62% | 1019.1 hPa | 0 mm | - | - | - |
| 1777779900 | 13.89° C | 62% | 1019 hPa | 0 mm | - | - | - |
| 1777779001 | 13.89° C | 62% | 1019.1 hPa | 0 mm | - | - | - |
| 1777778101 | 13.89° C | 61% | 1019.1 hPa | 0 mm | - | - | - |
| 1777777200 | 14.44° C | 61% | 1019.2 hPa | 0 mm | - | - | - |
| 1777776301 | 14.44° C | 60% | 1019.2 hPa | 0 mm | - | - | - |
| 1777775401 | 14.44° C | 60% | 1019.1 hPa | 0 mm | - | - | - |
| 1777774500 | 14.44° C | 60% | 1019.2 hPa | 0 mm | - | - | - |
| 1777773601 | 15° C | 56% | 1019.4 hPa | 0 mm | - | - | - |
| 1777772700 | 15.56° C | 51% | 1019.3 hPa | 0 mm | - | - | - |
| 1777771801 | 15.56° C | 53% | 1019.5 hPa | 0 mm | - | - | - |
| 1777770900 | 15° C | 54% | 1019.4 hPa | 0 mm | - | - | - |
| 1777770001 | 15° C | 55% | 1019.3 hPa | 0 mm | - | - | - |
| 1777769101 | 15° C | 56% | 1019.7 hPa | 0 mm | - | - | - |
| 1777768201 | 15° C | 55% | 1019.9 hPa | 0 mm | - | - | - |
| 1777767301 | 15° C | 55% | 1019.7 hPa | 0 mm | - | - | - |
| 1777766400 | 15° C | 56% | 1020 hPa | 0 mm | - | - | - |
| 1777765501 | 15.56° C | 55% | 1020.2 hPa | 0 mm | - | - | - |
| 1777764601 | 15.56° C | 54% | 1020.1 hPa | 0 mm | - | - | - |
| 1777763700 | 15.56° C | 53% | 1020.4 hPa | 0 mm | - | - | - |
| 1777762801 | 15.56° C | 52% | 1020.1 hPa | 0 mm | - | - | - |
* Rain latest hour (hover to see other rain measurements)
** Current wind speed in m/s (hover to see current wind gust speed)